Wind_Speed
14 15 15 15 17 16 19 15 14 17 17 15 16 22 20 15 19 19 22 17 22 26 28 31 29 28 16 14 17 20 23 21 19 19 22 23 23 22 25 30 35 37 39 42
12 16 17 15 17 19 21 24 17 20 25 27 27 27 14 9 5 13 22 27 28 28 25 30 33 33 24 16 17 19 22 25 22 22 25 26 24 28 29 33 37 38 41 45
13 18 16 14 16 20 20 19 16 17 27 29 29 21 13 5 9 19 18 14 21 21 26 31 35 38 38 21 16 18 18 23 26 28 30 26 30 32 33 36 37 39 43 47
10 13 13 13 13 16 16 18 18 19 22 24 20 23 12 3 6 12 16 16 8 20 26 27 36 31 25 19 19 18 16 18 23 25 25 28 32 35 36 39 37 39 44 47
11 10 10 11 11 14 15 18 17 19 18 16 12 19 5 11 1 11 11 14 14 25 20 15 20 21 18 19 22 25 26 27 28 32 33 33 37 38 42 41 40 40 44 48
10 10 10 10 10 13 14 16 14 15 13 3 11 19 11 8 0 12 22 23 22 21 19 25 26 23 23 24 29 31 32 33 34 35 37 36 39 42 43 44 38 38 44 47
12 7 8 14 14 13 14 14 13 13 11 9 7 15 18 7 8 18 24 19 27 17 27 29 25 30 27 30 32 36 37 38 36 37 38 38 40 43 42 33 34 41 45 50
14 4 7 10 14 9 10 14 12 12 10 15 11 4 6 6 9 18 14 23 25 29 39 43 43 44 40 27 30 35 39 41 42 42 38 39 41 38 33 33 39 43 48 51
15 10 12 6 16 23 13 12 12 15 12 12 8 14 8 14 20 20 26 21 24 27 36 37 40 35 29 32 25 29 33 35 37 38 37 37 33 32 34 37 41 46 47 49
16 10 20 22 21 10 15 12 11 10 12 12 6 14 16 18 19 16 20 27 22 20 24 26 31 34 27 27 26 27 27 27 28 28 27 29 30 31 35 39 40 40 40 38
17 18 15 23 23 20 12 12 9 13 13 23 19 14 14 16 18 23 28 21 15 17 23 34 37 35 35 32 29 27 24 25 25 27 28 29 29 32 37 38 36 38 38 41
21 24 21 16 15 18 19 14 13 20 22 22 23 19 19 25 16 18 18 23 21 24 27 40 44 46 43 33 32 32 27 25 25 25 26 29 32 37 37 37 38 38 40 42
25 31 30 22 17 20 22 20 21 23 26 32 33 28 14 20 21 25 27 32 35 37 25 35 41 43 40 28 29 30 29 26 26 27 29 32 33 36 38 37 39 40 39 42
31 33 35 34 24 28 32 32 27 26 33 29 27 20 15 18 31 31 35 39 37 41 30 33 36 39 37 31 32 28 28 26 28 28 29 30 32 34 35 36 39 45 42 48
36 36 36 37 35 29 35 36 36 35 33 32 28 32 27 29 33 33 36 39 39 36 34 32 37 38 36 28 31 30 26 26 28 26 27 30 33 34 35 36 38 41 44 49
37 35 36 38 37 38 38 40 41 41 42 43 43 43 38 37 37 42 46 46 44 40 34 31 32 37 38 31 28 30 28 28 29 31 34 35 37 38 40 41 42 43 47 49
41 41 37 38 36 41 46 39 40 43 45 47 49 45 42 44 47 49 48 45 40 35 24 22 27 32 37 31 26 27 28 29 31 34 36 37 39 40 41 46 50 51 52 49
39 41 43 42 40 39 37 43 40 42 43 43 44 35 41 44 47 47 48 45 38 34 26 26 29 35 35 31 28 30 29 30 33 37 41 42 42 43 44 50 52 54 46 47
38 38 39 42 43 40 43 41 38 42 43 42 47 46 40 47 48 45 47 44 41 37 33 27 30 34 33 32 31 32 28 31 28 32 34 37 40 42 44 48 51 50 38 45
37 39 41 42 46 45 43 41 37 43 43 43 45 51 49 47 49 46 41 40 41 40 37 29 30 31 36 35 33 33 37 32 20 27 32 34 37 40 43 47 58 36 40 43
40 42 43 43 43 44 42 39 36 41 45 45 42 49 50 50 48 44 38 36 39 45 45 37 31 34 35 36 31 30 32 33 30 31 33 38 40 37 44 47 40 52 38 38
40 43 48 48 49 48 41 39 37 44 45 44 45 46 46 45 41 37 32 34 38 44 46 42 34 35 37 41 35 32 31 32 34 32 35 39 41 42 45 43 51 51 27 36
44 44 46 46 46 42 42 40 44 42 42 44 48 48 47 42 37 35 33 34 37 42 45 45 34 35 36 39 39 32 30 30 32 34 38 40 40 40 43 50 46 28 32 36
45 49 50 49 46 44 41 42 41 39 35 40 41 38 34 30 30 32 35 38 35 37 44 42 40 29 33 37 36 33 31 29 33 36 38 36 36 40 41 50 38 32 34 35
50 49 51 52 51 50 46 47 47 44 46 41 43 46 41 32 30 37 35 36 32 33 41 43 37 32 31 30 32 34 31 31 31 33 34 33 34 41 42 46 29 31 33 35
46 48 53 52 47 47 48 48 49 50 48 48 50 46 44 41 37 36 35 33 31 33 37 39 39 32 33 35 38 35 32 30 29 28 30 29 32 32 26 25 27 29 32 38
Wind_Direction
265 257 253 251 246 233 241 241 218 196 203 213 228 250 282 287 255 241 236 227 269 283 292 301 298 299 315 286 281 282 298 305 309 310 317 325 321 324 326 327 324 324 325 327
261 250 249 248 249 243 226 251 248 221 216 224 238 262 297 300 357 332 269 246 237 247 268 283 285 289 303 281 268 278 290 296 300 306 308 315 313 316 326 328 319 318 321 322
259 267 268 253 256 261 267 266 261 253 241 253 269 278 255 208 347 324 335 294 247 226 248 262 270 278 285 286 290 287 291 285 295 301 299 304 311 313 318 319 314 312 316 317
266 274 276 278 280 271 272 275 261 246 251 265 274 288 287 255 336 301 310 342 292 255 255 265 266 273 273 281 291 293 301 302 305 306 303 303 306 305 311 312 308 305 310 314
280 276 277 277 300 294 285 279 279 276 292 297 323 311 297 236 52 291 307 302 266 265 241 275 292 285 282 291 285 283 289 297 299 302 303 303 305 304 310 310 306 305 308 310
272 295 312 305 294 291 291 293 286 281 286 351 17 341 27 197 311 301 252 244 267 251 268 278 287 299 274 281 281 283 284 287 290 292 294 296 298 302 305 305 301 300 303 306
263 242 312 315 289 285 296 293 298 289 257 211 301 297 328 72 319 286 272 271 260 294 279 271 273 289 279 261 262 266 271 277 281 286 287 290 293 297 300 298 295 301 302 308
271 207 318 310 305 295 305 299 308 308 283 274 247 208 260 202 232 255 262 273 284 284 289 291 296 297 295 276 270 271 272 274 277 282 280 284 289 295 297 297 300 306 308 309
268 236 232 230 266 288 290 302 290 287 299 309 250 223 258 285 223 221 247 264 268 261 252 259 276 280 292 296 290 287 283 281 277 277 280 283 288 296 299 296 309 307 312 312
274 282 255 254 273 286 292 280 288 292 283 278 204 231 257 275 268 235 224 224 213 242 264 283 294 301 290 286 287 288 288 287 285 282 282 286 293 296 298 303 307 307 308 310
276 270 233 258 276 285 297 288 282 296 287 280 281 247 267 273 269 249 224 251 226 270 263 285 290 287 287 298 294 289 296 291 289 282 282 287 291 296 298 301 306 309 307 308
276 276 273 265 268 283 282 272 262 269 279 275 263 264 232 270 314 256 305 276 276 271 288 303 298 289 291 291 291 291 291 292 291 286 286 286 291 297 300 300 305 304 307 309
273 272 274 262 256 240 242 231 229 239 259 269 279 287 264 267 274 274 263 269 277 303 282 284 285 291 299 302 290 297 294 294 295 294 291 293 295 296 300 300 302 301 304 309
264 263 269 272 260 266 266 273 263 244 247 273 266 280 256 248 251 265 268 274 285 270 268 285 288 293 299 303 295 290 286 287 288 290 297 296 298 300 299 301 302 304 305 309
264 266 266 270 272 257 267 266 263 264 255 254 261 272 257 258 271 274 281 280 275 279 287 290 287 288 292 304 305 294 289 286 287 292 292 294 300 302 304 306 304 302 303 306
275 267 266 265 267 267 258 256 260 261 264 269 269 271 267 273 272 264 264 271 277 282 282 286 287 285 288 296 299 288 286 283 284 286 288 293 296 299 302 304 302 300 305 309
274 278 274 272 271 271 271 272 265 264 263 266 268 269 269 265 266 268 273 278 283 292 302 297 286 289 285 292 289 295 285 283 283 286 288 290 294 298 301 301 301 299 302 309
271 275 279 283 283 278 282 276 276 271 267 261 263 262 261 262 264 267 272 278 287 293 291 283 279 282 290 296 283 283 282 283 282 286 289 294 296 295 299 301 306 306 302 313
269 271 275 277 279 281 282 286 279 276 270 260 257 252 244 254 259 263 273 281 287 288 289 287 278 281 285 288 286 283 283 268 277 287 295 299 299 301 304 301 314 301 315 315
269 272 274 278 279 282 284 285 282 273 265 259 250 255 251 245 260 267 275 278 281 281 280 276 269 269 275 279 282 289 289 297 296 302 302 303 306 307 312 314 314 306 310 314
283 282 278 276 275 278 278 281 274 266 260 249 248 249 255 255 260 266 269 267 267 270 272 270 266 262 264 271 278 282 292 303 306 305 303 305 309 310 318 317 318 322 304 319
278 277 279 282 284 290 291 282 272 263 254 254 248 247 253 255 255 257 255 255 259 262 266 268 267 265 261 268 273 277 284 291 298 300 301 303 309 315 317 317 315 308 319 328
279 275 273 272 287 286 278 277 278 275 268 263 261 258 258 260 265 264 262 258 250 256 260 262 263 263 262 264 272 273 275 286 291 297 301 308 313 316 324 330 323 333 335 336
278 279 282 281 282 279 277 274 266 252 244 258 272 272 273 273 276 269 258 255 255 252 260 260 261 259 266 266 272 274 279 287 292 297 305 309 312 319 318 329 325 343 338 329
281 282 283 281 277 274 272 270 270 261 253 253 258 272 274 267 260 263 262 260 256 253 256 260 260 253 258 264 269 274 281 289 295 300 304 311 317 319 313 311 329 335 328 329
287 285 276 275 273 272 269 262 263 263 260 258 260 262 265 267 259 262 267 263 257 253 254 258 260 255 254 264 269 273 281 286 292 300 306 315 323 327 333 329 338 333 330 336
Height
5889 5890 5890 5891 5892 5893 5892 5891 5893 5896 5897 5897 5897 5895 5895 5896 5895 5895 5896 5896 5898 5894 5893 5892 5891 5893 5896 5898 5897 5896 5894 5896 5894 5892 5890 5889 5886 5886 5883 5880 5875 5871 5868 5865
5887 5885 5886 5887 5888 5890 5889 5888 5890 5892 5893 5892 5891 5891 5894 5893 5893 5893 5892 5892 5892 5894 5892 5890 5888 5888 5891 5893 5893 5893 5892 5889 5891 5890 5887 5885 5883 5881 5879 5876 5870 5866 5862 5859
5882 5881 5883 5883 5885 5885 5886 5886 5889 5890 5890 5888 5886 5886 5888 5887 5887 5889 5888 5887 5887 5888 5888 5887 5886 5885 5886 5888 5888 5889 5889 5887 5886 5885 5882 5880 5877 5874 5873 5871 5867 5861 5857 5852
5880 5878 5880 5880 5882 5881 5882 5882 5883 5883 5883 5883 5884 5881 5885 5883 5883 5885 5884 5882 5883 5884 5884 5884 5884 5883 5883 5883 5882 5883 5884 5884 5880 5878 5877 5875 5872 5869 5868 5865 5860 5857 5851 5847
5877 5876 5877 5877 5879 5878 5879 5879 5879 5879 5880 5881 5884 5880 5881 5881 5881 5880 5880 5879 5881 5877 5878 5880 5882 5882 5881 5879 5879 5880 5878 5877 5876 5872 5870 5868 5864 5861 5861 5856 5853 5850 5845 5841
5874 5875 5875 5875 5876 5875 5875 5875 5877 5877 5877 5881 5880 5878 5878 5880 5880 5878 5872 5875 5875 5872 5872 5874 5877 5878 5878 5876 5874 5873 5873 5871 5869 5867 5864 5863 5860 5856 5855 5851 5847 5845 5841 5836
5870 5872 5873 5872 5872 5873 5873 5872 5873 5875 5873 5875 5874 5875 5877 5878 5881 5879 5874 5875 5872 5870 5870 5870 5872 5876 5876 5873 5872 5870 5868 5866 5863 5861 5858 5856 5853 5851 5847 5845 5842 5840 5835 5829
5867 5869 5867 5869 5868 5870 5870 5869 5870 5870 5871 5871 5873 5875 5873 5874 5877 5877 5876 5874 5871 5868 5864 5861 5861 5862 5864 5863 5862 5861 5860 5858 5855 5853 5851 5849 5846 5843 5839 5836 5834 5832 5827 5820
5864 5867 5864 5865 5866 5867 5868 5869 5869 5866 5867 5867 5871 5873 5872 5867 5866 5867 5867 5867 5868 5866 5865 5863 5860 5860 5857 5853 5854 5852 5850 5848 5846 5845 5843 5841 5839 5837 5833 5830 5827 5823 5818 5813
5861 5865 5863 5862 5863 5867 5864 5866 5866 5866 5864 5864 5866 5865 5865 5865 5862 5862 5861 5855 5853 5858 5858 5857 5856 5854 5852 5850 5849 5846 5843 5841 5839 5837 5835 5834 5833 5830 5827 5823 5820 5815 5810 5805
5856 5857 5863 5860 5862 5861 5862 5861 5862 5862 5863 5860 5860 5863 5863 5861 5860 5856 5854 5855 5851 5847 5850 5849 5848 5848 5846 5844 5842 5839 5837 5834 5833 5832 5830 5828 5827 5824 5820 5817 5814 5809 5803 5797
5852 5853 5854 5857 5859 5858 5857 5858 5859 5858 5857 5856 5854 5856 5860 5856 5856 5851 5851 5849 5847 5849 5847 5842 5838 5837 5839 5839 5836 5834 5833 5829 5827 5826 5824 5822 5821 5817 5814 5811 5807 5802 5796 5789
5848 5844 5845 5851 5855 5851 5849 5850 5851 5852 5852 5850 5850 5851 5857 5856 5853 5848 5847 5847 5846 5848 5840 5837 5834 5829 5830 5833 5831 5828 5826 5824 5823 5821 5819 5817 5814 5810 5807 5803 5799 5793 5787 5781
5839 5839 5839 5841 5847 5845 5843 5844 5844 5843 5843 5844 5844 5845 5848 5847 5843 5843 5842 5840 5841 5838 5832 5832 5829 5827 5825 5825 5822 5821 5819 5818 5817 5815 5812 5810 5806 5803 5799 5795 5791 5784 5778 5772
5831 5832 5833 5833 5835 5840 5837 5836 5837 5837 5836 5835 5837 5836 5838 5839 5838 5837 5834 5827 5824 5826 5827 5826 5823 5820 5818 5819 5816 5812 5812 5812 5810 5809 5806 5802 5800 5796 5792 5788 5782 5776 5770 5764
5821 5824 5824 5824 5826 5826 5827 5827 5829 5829 5830 5829 5828 5827 5830 5830 5830 5824 5820 5817 5817 5819 5820 5819 5816 5813 5810 5812 5810 5807 5806 5806 5805 5802 5799 5796 5793 5789 5784 5779 5773 5767 5761 5755
5809 5809 5813 5813 5818 5816 5814 5821 5821 5821 5821 5819 5817 5819 5819 5815 5811 5810 5809 5810 5812 5815 5816 5814 5811 5807 5804 5805 5803 5801 5799 5797 5795 5793 5791 5788 5786 5781 5776 5771 5764 5758 5752 5746
5802 5802 5800 5799 5802 5804 5809 5805 5807 5807 5809 5805 5805 5803 5800 5800 5798 5799 5801 5800 5803 5806 5808 5806 5804 5797 5797 5797 5793 5793 5790 5790 5787 5786 5783 5781 5778 5773 5768 5762 5756 5749 5742 5736
5792 5792 5792 5791 5792 5795 5795 5796 5792 5790 5795 5793 5792 5790 5789 5788 5788 5791 5793 5794 5794 5796 5798 5799 5796 5792 5791 5788 5783 5782 5779 5775 5778 5778 5776 5772 5768 5764 5759 5752 5746 5739 5732 5727
5782 5782 5782 5783 5782 5783 5784 5782 5776 5775 5778 5780 5778 5778 5779 5782 5779 5783 5786 5787 5786 5784 5785 5788 5786 5786 5784 5782 5780 5778 5774 5768 5770 5771 5769 5765 5761 5755 5750 5745 5737 5729 5724 5718
5770 5769 5770 5771 5770 5771 5770 5772 5766 5766 5767 5765 5765 5764 5767 5772 5774 5775 5778 5778 5777 5773 5771 5775 5777 5777 5775 5771 5771 5773 5770 5767 5765 5765 5762 5758 5754 5749 5742 5734 5726 5722 5714 5709
5764 5760 5758 5756 5754 5756 5757 5757 5756 5751 5750 5750 5750 5752 5752 5756 5760 5763 5766 5767 5767 5763 5760 5763 5768 5767 5767 5762 5764 5764 5764 5762 5761 5758 5755 5751 5747 5741 5736 5729 5721 5711 5703 5701
5751 5747 5747 5746 5748 5747 5744 5740 5740 5739 5738 5738 5738 5739 5739 5744 5749 5752 5755 5756 5757 5753 5750 5750 5757 5757 5756 5756 5754 5755 5756 5757 5755 5752 5749 5745 5740 5734 5728 5721 5711 5705 5702 5694
5738 5732 5734 5735 5738 5734 5733 5732 5734 5728 5729 5729 5727 5728 5735 5739 5740 5741 5740 5740 5745 5747 5741 5741 5745 5749 5748 5749 5748 5747 5748 5750 5748 5745 5742 5738 5734 5728 5721 5716 5710 5703 5697 5691
5724 5723 5721 5721 5719 5718 5717 5718 5717 5719 5718 5718 5719 5719 5723 5726 5727 5725 5728 5730 5735 5737 5734 5732 5737 5741 5741 5742 5742 5740 5742 5743 5741 5739 5736 5733 5728 5721 5714 5709 5705 5701 5695 5688
5714 5712 5703 5704 5703 5701 5701 5702 5701 5701 5703 5706 5709 5711 5711 5711 5714 5718 5719 5721 5724 5725 5724 5725 5727 5731 5735 5734 5734 5735 5737 5736 5735 5734 5730 5727 5722 5716 5709 5705 5701 5696 5690 5682